Weather History for Opa Locka, FL

Change the Weather History Date:

Thursday, September 26, 2013

  Actual Average Record
Temperature  
Mean Temperature 84 °F -  
Max Temperature 91 °F 87 °F 93 °F (1978)
Min Temperature 77 °F 74 °F 68 °F (1956)
Cooling Degree Days 19    
Growing Degree Days 34 (Base 50)    
Moisture  
Dew Point 76 °F    
Average Humidity 83    
Maximum Humidity 94    
Minimum Humidity 59    
Precipitation  
Precipitation 0.05 in - - ()
Sea Level Pressure  
Sea Level Pressure 29.86 in    
Wind  
Wind Speed 7 mph (West)    
Max Wind Speed 17 mph    
Max Gust Speed 29 mph    
Visibility 10 miles    
Events Rain    
Averages and records for this station are not official NWS values.
T = Trace of Precipitation, MM = Missing Value Source: NWS Daily Summary

Daily Weather History Graph

Daily Weather History Graph

Search for Another Location

Airport:

Trip Planner

Search our weather history database for the weather conditions in past years. The results will help you decide how hot, cold, wet, or windy it might be!

Date:

Astronomy

Sep. 26, 2013 Rise Set
Actual Time 7:11 AM EDT 7:12 PM EDT
Civil Twilight 6:48 AM EDT 7:35 PM EDT
Nautical Twilight 6:21 AM EDT 8:02 PM EDT
Astronomical Twilight 5:54 AM EDT 8:29 PM EDT
Moon No Moon Rise 1:33 PM EDT (9/26)
Length of Visible Light 12h 47m
Length of Day
12h 01m
Waning Gibbous, 55% of the Moon is Illuminated
Sep 26
Waning Gibbous
Sep 26
Last Quarter
Oct 4
New
Oct 11
First Quarter
Oct 18
Full

Hourly Weather History & Observations

Time (EDT) Temp. Heat Index Dew Point Humidity Pressure Visibility Wind Dir Wind Speed Gust Speed Precip Events Conditions
12:53 AM 77.0 °F - 75.0 °F 94% 29.86 in 10.0 mi Calm Calm - N/A   Clear
1:53 AM 78.1 °F - 75.9 °F 93% 29.86 in 10.0 mi WSW 4.6 mph - N/A   Clear
2:53 AM 79.0 °F - 75.9 °F 90% 29.85 in 10.0 mi WSW 4.6 mph - N/A   Clear
3:53 AM 78.1 °F - 75.9 °F 93% 29.85 in 10.0 mi West 3.5 mph - N/A   Clear
4:53 AM 78.1 °F - 75.9 °F 93% 29.85 in 10.0 mi Calm Calm - N/A   Clear
5:53 AM 77.0 °F - 75.0 °F 94% 29.85 in 10.0 mi SW 3.5 mph - N/A   Clear
6:53 AM 79.0 °F - 77.0 °F 94% 29.86 in 10.0 mi SW 5.8 mph - N/A   Clear
7:53 AM 80.1 °F 86.4 °F 78.1 °F 94% 29.88 in 10.0 mi SW 6.9 mph - N/A   Clear
8:53 AM 82.9 °F 92.8 °F 78.1 °F 85% 29.89 in 10.0 mi WSW 8.1 mph - N/A   Clear
9:45 AM 84.2 °F 96.1 °F 78.8 °F 84% 29.89 in 10.0 mi WSW 12.7 mph 17.3 mph N/A   Mostly Cloudy
9:53 AM 84.9 °F 96.6 °F 78.1 °F 80% 29.89 in 10.0 mi West 12.7 mph - N/A   Mostly Cloudy
10:53 AM 87.1 °F 97.3 °F 75.9 °F 69% 29.89 in 10.0 mi West 13.8 mph - N/A   Mostly Cloudy
11:01 AM 87.8 °F 97.6 °F 75.2 °F 66% 29.89 in 10.0 mi West 15.0 mph - N/A   Scattered Clouds
11:53 AM 88.0 °F 100.2 °F 77.0 °F 70% 29.88 in 10.0 mi West 11.5 mph - 0.00 in   Mostly Cloudy
12:53 PM 89.1 °F 100.2 °F 75.9 °F 65% 29.85 in 10.0 mi WSW 17.3 mph - N/A   Partly Cloudy
1:53 PM 91.0 °F 101.6 °F 75.0 °F 59% 29.83 in 10.0 mi West 17.3 mph 24.2 mph N/A   Scattered Clouds
2:39 PM 82.4 °F 92.4 °F 78.8 °F 89% 29.84 in 9.0 mi WNW 10.4 mph - 0.03 in Rain Light Rain
2:53 PM 82.9 °F 92.8 °F 78.1 °F 85% 29.83 in 10.0 mi NW 12.7 mph - 0.04 in Rain Light Rain
3:53 PM 88.0 °F 101.3 °F 78.1 °F 72% 29.83 in 10.0 mi WNW 13.8 mph 21.9 mph 0.01 in   Mostly Cloudy
4:53 PM 82.9 °F 90.8 °F 75.9 °F 79% 29.85 in 10.0 mi NW 16.1 mph 28.8 mph 0.00 in Rain Light Rain
5:53 PM 82.0 °F 89.4 °F 75.9 °F 82% 29.83 in 10.0 mi West 10.4 mph - 0.00 in   Partly Cloudy
6:53 PM 82.0 °F 89.4 °F 75.9 °F 82% 29.83 in 10.0 mi WNW 12.7 mph - N/A   Clear
7:53 PM 81.0 °F 86.7 °F 75.0 °F 82% 29.83 in 10.0 mi West 10.4 mph - N/A   Clear
8:53 PM 81.0 °F 87.3 °F 75.9 °F 85% 29.84 in 10.0 mi West 9.2 mph - N/A   Clear
9:53 PM 81.0 °F 87.3 °F 75.9 °F 85% 29.86 in 10.0 mi West 8.1 mph - N/A   Clear
10:53 PM 80.1 °F 85.4 °F 75.9 °F 87% 29.87 in 10.0 mi West 6.9 mph - N/A   Clear
11:53 PM 80.1 °F 85.8 °F 77.0 °F 90% 29.87 in 10.0 mi West 5.8 mph - N/A   Clear